Weather History for Boise, ID

Change the Weather History Date:

Tuesday, April 29, 2014

  Actual Average Record
Temperature  
Mean Temperature 49 °F 54 °F  
Max Temperature 64 °F 66 °F 89 °F (1992)
Min Temperature 33 °F 42 °F 27 °F (1954)
Degree Days  
Heating Degree Days 16 11  
Month to date heating degree days 420 419  
Since 1 July heating degree days 5348 5214  
Cooling Degree Days 0 0  
Month to date cooling degree days 0 0  
Year to date cooling degree days 0 0  
Moisture  
Dew Point 27 °F    
Average Humidity 49    
Maximum Humidity 75    
Minimum Humidity 23    
Precipitation  
Precipitation 0.00 in 0.04 in 0.56 in (1933)
Month to date precipitation 2.15 1.19  
Year to date precipitation 7.50 4.81  
Snow  
Snow 0.00 in 0.00 in 0.20 in (1972)
Month to date snowfall 0.0 0.3  
Since 1 July snowfall 14.4 19.2  
Snow Depth 0.00 in    
Sea Level Pressure  
Sea Level Pressure 30.49 in    
Wind  
Wind Speed 6 mph (WNW)    
Max Wind Speed 16 mph    
Max Gust Speed 24 mph    
Visibility 10 miles    
Events      
T = Trace of Precipitation, MM = Missing Value Source: NWS Daily Summary

Daily Weather History Graph

Daily Weather History Graph

Search for Another Location

Airport:

Trip Planner

Search our weather history database for the weather conditions in past years. The results will help you decide how hot, cold, wet, or windy it might be!

Date:

Astronomy

Apr. 29, 2014 Rise Set
Actual Time 6:40 AM MDT 8:45 PM MDT
Civil Twilight 6:09 AM MDT 9:16 PM MDT
Nautical Twilight 5:30 AM MDT 9:54 PM MDT
Astronomical Twilight 4:48 AM MDT 10:37 PM MDT
Moon 7:01 AM MDT (4/29) 9:30 PM MDT (4/29)
Length of Visible Light 15h 07m
Length of Day
14h 04m
New Moon, 0% of the Moon is Illuminated
Apr 29
New Moon
May 6
First Quarter
May 14
Full
May 21
Last Quarter
May 28
New

Hourly Weather History & Observations

Time (MDT) Temp. Windchill Dew Point Humidity Pressure Visibility Wind Dir Wind Speed Gust Speed Precip Events Conditions
12:53 AM 39.0 °F 36.8 °F 27.0 °F 62% 30.42 in 10.0 mi South 3.5 mph - N/A   Clear
1:53 AM 39.0 °F - 26.1 °F 60% 30.45 in 10.0 mi Calm Calm - N/A   Clear
2:53 AM 39.9 °F 37.8 °F 27.0 °F 60% 30.46 in 10.0 mi ESE 3.5 mph - N/A   Clear
3:53 AM 37.0 °F 34.5 °F 27.0 °F 67% 30.47 in 10.0 mi SE 3.5 mph - N/A   Clear
4:53 AM 35.1 °F 31.0 °F 26.1 °F 70% 30.48 in 10.0 mi ESE 4.6 mph - N/A   Clear
5:53 AM 35.1 °F 32.2 °F 26.1 °F 70% 30.49 in 10.0 mi ESE 3.5 mph - N/A   Clear
6:53 AM 33.8 °F - 26.6 °F 75% 30.49 in 10.0 mi Calm Calm - N/A   Clear
7:53 AM 36.0 °F - 28.0 °F 73% 30.55 in 10.0 mi Calm Calm - N/A   Clear
8:53 AM 42.8 °F - 28.4 °F 57% 30.54 in 10.0 mi Calm Calm - N/A   Clear
9:53 AM 46.0 °F 44.8 °F 28.0 °F 50% 30.57 in 10.0 mi Variable 3.5 mph - N/A   Clear
10:53 AM 48.9 °F - 28.9 °F 46% 30.56 in 10.0 mi WNW 4.6 mph - N/A   Clear
11:53 AM 53.1 °F - 28.9 °F 40% 30.56 in 10.0 mi NW 5.8 mph - N/A   Clear
12:53 PM 57.0 °F - 25.0 °F 29% 30.54 in 10.0 mi WNW 11.5 mph - N/A   Clear
1:53 PM 59.0 °F - 24.1 °F 26% 30.52 in 10.0 mi WNW 8.1 mph 17.3 mph N/A   Clear
2:53 PM 60.1 °F - 27.0 °F 28% 30.51 in 10.0 mi WNW 9.2 mph - N/A   Clear
3:53 PM 62.6 °F - 24.8 °F 24% 30.49 in 10.0 mi West 11.5 mph - N/A   Clear
4:53 PM 62.1 °F - 26.1 °F 25% 30.48 in 10.0 mi NNW 13.8 mph - N/A   Clear
5:53 PM 63.0 °F - 26.1 °F 25% 30.47 in 10.0 mi WNW 12.7 mph - N/A   Clear
6:53 PM 63.0 °F - 27.0 °F 26% 30.46 in 10.0 mi NW 10.4 mph - N/A   Clear
7:53 PM 62.1 °F - 24.1 °F 23% 30.45 in 10.0 mi WNW 11.5 mph - N/A   Clear
8:53 PM 59.0 °F - 24.1 °F 26% 30.45 in 10.0 mi WNW 5.8 mph - N/A   Clear
9:53 PM 54.0 °F - 28.0 °F 37% 30.46 in 10.0 mi NNE 4.6 mph - N/A   Clear
10:53 PM 51.1 °F - 28.9 °F 43% 30.47 in 10.0 mi Calm Calm - N/A   Clear
11:53 PM 50.0 °F - 28.0 °F 43% 30.46 in 10.0 mi Calm Calm - N/A   Clear